User: anonymous   Login
Location: ????????
(54.9045°N, 39.1041°E)
Time: 18:31:45
(UTC+00:00)
Language:

Cosmos 1461 - Orbit

View from above orbital plane
View from above orbital plane
View from above satellite
View from above satellite

Ground track
Ground track

The orbit data is extracted from the following two-line orbital elements,

1 14064U 83044A   24170.62301514  .00009699  00000-0  60316-3 0  9992
2 14064  64.9970 252.5515 0058831 112.8457 247.8894 15.08650080106158
Epoch (UTC): 18 June 2024 14:57:08
Eccentricity: 0.0058831
inclination: 64.9970°
perigee height: 499 km
apogee height: 581 km
right ascension of ascending node: 252.5515°
argument of perigee: 112.8457°
revolutions per day: 15.08650080
mean anomaly at epoch: 247.8894°
orbit number at epoch: 10615

The dashed part of the orbit path shows where the satellite is in the earth's shadow,  

DLR